Regional Weather Roundup
Issued by NWS

Home | Current Version | Previous Version | Graphics & Text | Print | Product List | Glossary On
Versions: 1 2 3 4 5 6 7 8 9 10 11 12 13 14 15 16 17 18 19 20 21 22 23 24 25 26 27 28 29 30 31 32 33 34 35 36 37 38 39 40 41 42 43 44 45 46 47 48 49 50
000
ASUS43 KLSX 281507
RWRMO

WEATHER SUMMARY FOR MISSOURI
NATIONAL WEATHER SERVICE SPRINGFIELD MO
900 AM CST SAT FEB 28 2015

NOTE: "FAIR" INDICATES FEW OR NO CLOUDS BELOW 12,000 FEET WITH NO
       SIGNIFICANT WEATHER AND/OR OBSTRUCTIONS TO VISIBILITY.
       CURRENT SKY AND/OR WEATHER CONDITIONS ARE NOT AVAILABLE FOR
       CHILLICOTHE AND FARMINGTON.

MOZ001>031-035>038-043-044-053-054-281600-
...NORTHERN AND WESTERN MISSOURI...

CITY           SKY/WX    TMP DP  RH WIND       PRES   REMARKS
KANSAS CTY INT FLURRIES  19   9  65 SE12      30.51R WCI   7
KANSAS C DTWN  CLOUDY    21   9  59 E6        30.53R WCI  13
LEE`S SUMMIT   CLOUDY    20   8  60 SE8       30.51R WCI  10
ST JOSEPH      PTSUNNY   17   9  70 SE8       30.53S WCI   7
CHILLICOTHE      N/A     17   9  70 SE9       30.57S WCI   6
KIRKSVILLE     SUNNY     15   6  67 SE10      30.58S WCI   2

$$
MOZ066>068-077>081-088>096-101>105-281600-
...SOUTHWEST MISSOURI...

CITY           SKY/WX    TMP DP  RH WIND       PRES   REMARKS
SPRINGFIELD    LGT SNOW  21  15  78 SE14      30.48R WCI   8
JOPLIN         LGT SNOW  21  16  81 SE8       30.49R VSB 3/4 WCI  11

$$
MOZ032>034-039>042-045>050-055>058-069>072-281600-
...CENTRAL MISSOURI...

CITY           SKY/WX    TMP DP  RH WIND       PRES   REMARKS
COLUMBIA       CLOUDY    19  11  70 E10       30.57S WCI   7
JEFFERSON CITY CLOUDY    20  10  65 E13       30.60S WCI   7
ROLLA          FLURRIES  19  10  68 E12       30.54R WCI   7
SEDALIA        CLOUDY    22   8  55 SE12      30.54S WCI  10
WARRENSBURG    MOSUNNY   23  10  58 E7        30.54S WCI  15
OSAGE BEACH    CLOUDY    21   9  58 SE9       30.54F WCI  11

$$
MOZ051-052-059>065-281600-
...EAST CENTRAL MISSOURI...

CITY           SKY/WX    TMP DP  RH WIND       PRES   REMARKS
ST LOUIS INTL  PTSUNNY   20   7  57 E8        30.64F WCI  10
SPIRIT OF STL  PTSUNNY   20   6  55 E8        30.64S WCI  10
ST CHARLES     CLOUDY    16   7  67 E8        30.66S WCI   5

$$
MOZ072>076-082>087-097>100-106>115-281600-
...SOUTH CENTRAL AND SOUTHEAST MISSOURI...

CITY           SKY/WX    TMP DP  RH WIND       PRES   REMARKS
CAPE GIRARDEAU CLOUDY    23  12  62 NE8       30.64S WCI  14
FARMINGTON     CLOUDY    18  10  73 E7        30.62S WCI   8
POPLAR BLUFF   LGT SNOW  21  14  74 NE8       30.62F WCI  11
WEST PLAINS    LGT SNOW  19  13  77 E9        30.53R WCI   8

$$


USA.gov is the U.S. government's official web portal to all federal, state and local government web resources and services.